When you browse on this site, cookies collect data to enhance your experience and personalize the content and advertising you see.
Visit our Privacy Policy to learn more. By continuing to use the site, you agree to this use of cookies and data.
EN

Hourly Weather Kanty

Today, 27 September, Sunday

Time Temperature Precipitation Wind Pressure Humidity
00:00 +17°C° 0.2 mm 4 mps 738 mmHg 89%
01:00 +17°C° 0 mm 4 mps 738 mmHg 88%
02:00 +17°C° 0.2 mm 4 mps 738 mmHg 86%
03:00 +16°C° 0.2 mm 5 mps 737 mmHg 84%
04:00 +16°C° 0.2 mm 5 mps 737 mmHg 81%
05:00 +16°C° 0.2 mm 6 mps 737 mmHg 80%
06:00 +16°C° 0.2 mm 6 mps 737 mmHg 79%
07:00 +17°C° 0.2 mm 7 mps 737 mmHg 78%
08:00 +17°C° 0.1 mm 7 mps 738 mmHg 75%
09:00 +18°C° 0.1 mm 8 mps 738 mmHg 72%
10:00 +20°C° 0.1 mm 8 mps 738 mmHg 69%
11:00 +18°C° 0.1 mm 7 mps 739 mmHg 72%
12:00 +17°C° 0.1 mm 7 mps 739 mmHg 75%
13:00 +16°C° 0.1 mm 6 mps 740 mmHg 78%
14:00 +15°C° 0.1 mm 6 mps 741 mmHg 80%
15:00 +13°C° 0.1 mm 6 mps 741 mmHg 83%
16:00 +10°C° 0.1 mm 6 mps 742 mmHg 85%
17:00 +10°C° 0 mm 5 mps 743 mmHg 84%
18:00 +10°C° 0 mm 4 mps 744 mmHg 84%
19:00 +10°C° 0 mm 4 mps 744 mmHg 83%
20:00 +10°C° 0 mm 4 mps 745 mmHg 85%
21:00 +9°C° 0 mm 3 mps 746 mmHg 87%
22:00 +9°C° 0 mm 3 mps 747 mmHg 88%
23:00 +9°C° 0 mm 3 mps 747 mmHg 90%

Tomorrow, 28 September, Monday

Time Temperature Precipitation Wind Pressure Humidity
00:00 +8°C° 0 mm 3 mps 747 mmHg 92%
01:00 +8°C° 0 mm 2 mps 748 mmHg 93%
02:00 +8°C° 0 mm 2 mps 748 mmHg 93%
03:00 +8°C° 0 mm 2 mps 748 mmHg 93%
04:00 +8°C° 0 mm 2 mps 748 mmHg 92%
05:00 +8°C° 0 mm 2 mps 749 mmHg 90%
06:00 +9°C° 0 mm 2 mps 749 mmHg 87%
07:00 +9°C° 0 mm 2 mps 749 mmHg 85%
08:00 +12°C° 0 mm 2 mps 750 mmHg 77%
09:00 +14°C° 0 mm 2 mps 750 mmHg 69%
10:00 +16°C° 0 mm 2 mps 750 mmHg 61%
11:00 +17°C° 0 mm 2 mps 750 mmHg 57%
12:00 +17°C° 0 mm 2 mps 750 mmHg 53%
13:00 +18°C° 0 mm 2 mps 750 mmHg 50%
14:00 +18°C° 0 mm 2 mps 750 mmHg 52%
15:00 +19°C° 0 mm 1 mps 750 mmHg 54%
16:00 +19°C° 0 mm 1 mps 750 mmHg 56%
17:00 +16°C° 0 mm 1 mps 750 mmHg 61%
18:00 +14°C° 0 mm 1 mps 750 mmHg 65%
19:00 +12°C° 0 mm 1 mps 750 mmHg 69%
20:00 +12°C° 0 mm 1 mps 750 mmHg 71%
21:00 +11°C° 0 mm 1 mps 750 mmHg 74%
22:00 +11°C° 0 mm 1 mps 750 mmHg 76%
23:00 +11°C° 0 mm 1 mps 750 mmHg 77%

Day after tomorrow, 29 September, Tuesday

Time Temperature Precipitation Wind Pressure Humidity
00:00 +11°C° 0 mm 1 mps 750 mmHg 78%
01:00 +9°C° 0 mm 2 mps 750 mmHg 79%
02:00 +9°C° 0 mm 2 mps 750 mmHg 78%
03:00 +9°C° 0 mm 2 mps 750 mmHg 78%
04:00 +9°C° 0 mm 2 mps 750 mmHg 78%
05:00 +10°C° 0 mm 2 mps 750 mmHg 77%
06:00 +10°C° 0 mm 2 mps 750 mmHg 77%
07:00 +10°C° 0 mm 2 mps 750 mmHg 76%
08:00 +13°C° 0 mm 2 mps 750 mmHg 70%
09:00 +15°C° 0 mm 2 mps 750 mmHg 64%
10:00 +17°C° 0 mm 3 mps 750 mmHg 59%
11:00 +17°C° 0 mm 3 mps 750 mmHg 57%
12:00 +18°C° 0 mm 3 mps 750 mmHg 55%
13:00 +19°C° 0 mm 3 mps 750 mmHg 53%
14:00 +18°C° 0 mm 3 mps 750 mmHg 56%
15:00 +18°C° 0 mm 3 mps 750 mmHg 60%
16:00 +17°C° 0 mm 3 mps 750 mmHg 63%
17:00 +16°C° 0 mm 3 mps 750 mmHg 69%
18:00 +13°C° 0 mm 3 mps 750 mmHg 75%
19:00 +12°C° 0 mm 3 mps 750 mmHg 80%
20:00 +12°C° 0 mm 2 mps 750 mmHg 82%
21:00 +12°C° 0 mm 2 mps 750 mmHg 84%
22:00 +10°C° 0 mm 2 mps 750 mmHg 86%
23:00 +10°C° 0 mm 2 mps 750 mmHg 88%

30 September, Wednesday

Time Temperature Precipitation Wind Pressure Humidity
00:00 +10°C° 0 mm 2 mps 750 mmHg 90%
01:00 +9°C° 0 mm 2 mps 750 mmHg 91%
02:00 +9°C° 0 mm 2 mps 750 mmHg 92%
03:00 +9°C° 0 mm 2 mps 750 mmHg 93%
04:00 +9°C° 0 mm 2 mps 750 mmHg 94%
05:00 +10°C° 0 mm 2 mps 750 mmHg 92%
06:00 +10°C° 0 mm 2 mps 750 mmHg 91%
07:00 +10°C° 0 mm 2 mps 750 mmHg 89%
08:00 +12°C° 0 mm 3 mps 750 mmHg 83%
09:00 +14°C° 0 mm 3 mps 750 mmHg 76%
10:00 +17°C° 0 mm 3 mps 750 mmHg 69%
11:00 +18°C° 0 mm 3 mps 749 mmHg 67%
12:00 +18°C° 0 mm 4 mps 749 mmHg 65%
13:00 +19°C° 0 mm 4 mps 749 mmHg 62%
14:00 +18°C° 0 mm 4 mps 749 mmHg 66%
15:00 +18°C° 0 mm 4 mps 748 mmHg 69%
16:00 +17°C° 0 mm 4 mps 748 mmHg 73%
17:00 +15°C° 0 mm 4 mps 748 mmHg 79%
18:00 +13°C° 0 mm 3 mps 748 mmHg 85%
19:00 +12°C° 0 mm 3 mps 749 mmHg 91%
20:00 +12°C° 0 mm 3 mps 748 mmHg 92%
21:00 +12°C° 0 mm 2 mps 748 mmHg 94%
22:00 +12°C° 0 mm 2 mps 748 mmHg 95%
23:00 +12°C° 0 mm 2 mps 747 mmHg 94%

1 October, Thursday

Time Temperature Precipitation Wind Pressure Humidity
00:00 +12°C° 0 mm 2 mps 747 mmHg 94%
01:00 +12°C° 0 mm 2 mps 747 mmHg 93%
02:00 +12°C° 0 mm 2 mps 747 mmHg 93%
03:00 +12°C° 0 mm 2 mps 747 mmHg 92%
04:00 +12°C° 0 mm 2 mps 746 mmHg 92%
05:00 +12°C° 0 mm 2 mps 746 mmHg 89%
06:00 +11°C° 0 mm 3 mps 746 mmHg 86%
07:00 +11°C° 0 mm 3 mps 746 mmHg 83%
08:00 +12°C° 0 mm 3 mps 745 mmHg 75%
09:00 +13°C° 0 mm 3 mps 745 mmHg 67%
10:00 +16°C° 0 mm 3 mps 745 mmHg 59%
11:00 +17°C° 0 mm 3 mps 744 mmHg 54%
12:00 +18°C° 0 mm 4 mps 744 mmHg 49%
13:00 +19°C° 0 mm 4 mps 744 mmHg 44%
14:00 +18°C° 0 mm 4 mps 744 mmHg 48%
15:00 +17°C° 0 mm 4 mps 743 mmHg 53%
16:00 +15°C° 0 mm 5 mps 743 mmHg 57%
17:00 +14°C° 0 mm 4 mps 743 mmHg 60%
18:00 +13°C° 0 mm 4 mps 743 mmHg 64%
19:00 +11°C° 0 mm 3 mps 743 mmHg 68%
20:00 +12°C° 0 mm 3 mps 743 mmHg 72%
21:00 +12°C° 0 mm 3 mps 743 mmHg 75%
22:00 +12°C° 0 mm 3 mps 742 mmHg 79%
23:00 +12°C° 0 mm 3 mps 742 mmHg 83%

2 October, Friday

Time Temperature Precipitation Wind Pressure Humidity
00:00 +11°C° 0 mm 3 mps 742 mmHg 87%
01:00 +11°C° 0 mm 3 mps 742 mmHg 91%
02:00 +11°C° 0 mm 3 mps 742 mmHg 92%
03:00 +10°C° 0 mm 3 mps 742 mmHg 94%
04:00 +10°C° 0 mm 3 mps 742 mmHg 96%
05:00 +10°C° 0 mm 4 mps 742 mmHg 94%
06:00 +11°C° 0 mm 4 mps 742 mmHg 92%
07:00 +11°C° 0 mm 4 mps 742 mmHg 91%
08:00 +12°C° 0 mm 4 mps 742 mmHg 84%
09:00 +14°C° 0 mm 4 mps 742 mmHg 77%
10:00 +15°C° 0 mm 4 mps 742 mmHg 71%
11:00 +17°C° 0 mm 4 mps 742 mmHg 67%
12:00 +18°C° 0 mm 4 mps 742 mmHg 63%
13:00 +19°C° 0 mm 4 mps 742 mmHg 60%
14:00 +18°C° 0 mm 4 mps 742 mmHg 62%
15:00 +18°C° 0 mm 4 mps 742 mmHg 65%
16:00 +17°C° 0 mm 3 mps 742 mmHg 67%
17:00 +15°C° 0 mm 4 mps 742 mmHg 72%
18:00 +14°C° 0 mm 4 mps 742 mmHg 77%
19:00 +13°C° 0 mm 5 mps 742 mmHg 82%
20:00 +13°C° 0 mm 4 mps 742 mmHg 83%
21:00 +12°C° 0 mm 4 mps 742 mmHg 83%
22:00 +12°C° 0 mm 4 mps 742 mmHg 84%
23:00 +12°C° 0 mm 4 mps 742 mmHg 87%
Show more